Weather History for Duncan, OK

Change the Weather History Date:

Thursday, February 7, 2013

  Actual Average (KLAW) Record (KLAW)
Temperature  
Mean Temperature 57 °F -  
Max Temperature 68 °F 49 °F 78 °F (2009)
Min Temperature 46 °F 25 °F 10 °F (1982)
Degree Days  
Heating Degree Days 8    
Growing Degree Days 7 (Base 50)    
Moisture  
Dew Point 51 °F    
Average Humidity 82    
Maximum Humidity 100    
Minimum Humidity 56    
Precipitation  
Precipitation 0.00 in - - ()
Sea Level Pressure  
Sea Level Pressure 29.92 in    
Wind  
Wind Speed 13 mph (NE)    
Max Wind Speed 25 mph    
Max Gust Speed 33 mph    
Visibility 10 miles    
Events      
Averages and records for this station are not official NWS values.
T = Trace of Precipitation, MM = Missing Value Source: NWS Daily Summary

Daily Weather History Graph

Daily Weather History Graph

Search for Another Location

Airport:

Trip Planner

Search our weather history database for the weather conditions in past years. The results will help you decide how hot, cold, wet, or windy it might be!

Date:

Astronomy

Feb. 07, 2013 Rise Set
Actual Time 7:24 AM CST 6:07 PM CST
Civil Twilight 6:58 AM CST 6:33 PM CST
Nautical Twilight 6:28 AM CST 7:03 PM CST
Astronomical Twilight 5:59 AM CST 7:33 PM CST
Moon 5:01 AM CST (2/7) 3:37 PM CST (2/7)
Length of Visible Light 11h 35m
Length of Day
10h 43m
Waning Crescent, 9% of the Moon is Illuminated
Feb 7
Waning Crescent
Feb 10
New
Feb 17
First Quarter
Feb 25
Full
Mar 4
Last Quarter

Hourly Weather History & Observations

Time (CST) Temp. Windchill Dew Point Humidity Pressure Visibility Wind Dir Wind Speed Gust Speed Precip Events Conditions
12:15 AM 59.0 °F - 59.0 °F 100% 29.87 in 10.0 mi SSE 11.5 mph 18.4 mph N/A   Overcast
12:35 AM 59.0 °F - 59.0 °F 100% 29.87 in 10.0 mi SE 11.5 mph 17.3 mph N/A   Overcast
12:55 AM 59.0 °F - 59.0 °F 100% 29.86 in 10.0 mi SE 11.5 mph 17.3 mph N/A   Overcast
1:15 AM 59.0 °F - 59.0 °F 100% 29.86 in 10.0 mi SE 11.5 mph - N/A   Overcast
1:35 AM 57.2 °F - 57.2 °F 100% 29.85 in 10.0 mi SE 11.5 mph - N/A   Overcast
1:55 AM 57.2 °F - 57.2 °F 100% 29.84 in 10.0 mi SE 12.7 mph - N/A   Overcast
2:15 AM 57.2 °F - 57.2 °F 100% 29.84 in 10.0 mi SE 15.0 mph 21.9 mph N/A   Overcast
2:35 AM 57.2 °F - 57.2 °F 100% 29.82 in 10.0 mi SE 17.3 mph - N/A   Overcast
2:55 AM 57.2 °F - 57.2 °F 100% 29.82 in 10.0 mi SSE 15.0 mph - N/A   Overcast
3:15 AM 59.0 °F - 59.0 °F 100% 29.82 in 10.0 mi SE 15.0 mph - N/A   Overcast
3:35 AM 59.0 °F - 59.0 °F 100% 29.82 in 10.0 mi SE 13.8 mph 19.6 mph N/A   Overcast
3:55 AM 59.0 °F - 59.0 °F 100% 29.81 in 10.0 mi SE 12.7 mph - N/A   Overcast
4:15 AM 59.0 °F - 59.0 °F 100% 29.81 in 10.0 mi SSE 10.4 mph 20.7 mph N/A   Overcast
4:35 AM 59.0 °F - 59.0 °F 100% 29.80 in 10.0 mi SSE 13.8 mph - N/A   Overcast
4:55 AM 59.0 °F - 59.0 °F 100% 29.79 in 10.0 mi SSE 16.1 mph - N/A   Mostly Cloudy
5:15 AM 59.0 °F - 59.0 °F 100% 29.79 in 10.0 mi SSE 15.0 mph - N/A   Mostly Cloudy
5:35 AM 59.0 °F - 59.0 °F 100% 29.79 in 10.0 mi South 13.8 mph 18.4 mph N/A   Mostly Cloudy
5:55 AM 59.0 °F - 59.0 °F 100% 29.79 in 10.0 mi South 15.0 mph - N/A   Mostly Cloudy
6:15 AM 60.8 °F - 59.0 °F 94% 29.80 in 10.0 mi South 15.0 mph - N/A   Mostly Cloudy
6:35 AM 59.0 °F - 59.0 °F 100% 29.80 in 10.0 mi SSE 12.7 mph - N/A   Mostly Cloudy
6:55 AM 59.0 °F - 59.0 °F 100% 29.80 in 10.0 mi South 8.1 mph - N/A   Overcast
7:15 AM 59.0 °F - 59.0 °F 100% 29.80 in 10.0 mi SSE 13.8 mph 17.3 mph N/A   Overcast
7:35 AM 59.0 °F - 59.0 °F 100% 29.80 in 10.0 mi South 13.8 mph - N/A   Overcast
7:55 AM 59.0 °F - 59.0 °F 100% 29.80 in 10.0 mi South 15.0 mph - N/A   Overcast
8:15 AM 59.0 °F - 59.0 °F 100% 29.81 in 10.0 mi South 9.2 mph 12.7 mph N/A   Overcast
8:35 AM 59.0 °F - 59.0 °F 100% 29.81 in 10.0 mi South 15.0 mph 18.4 mph N/A   Overcast
8:55 AM 59.0 °F - 59.0 °F 100% 29.82 in 10.0 mi South 11.5 mph - N/A   Overcast
9:15 AM 60.8 °F - 59.0 °F 94% 29.82 in 10.0 mi SSW 13.8 mph - N/A   Mostly Cloudy
9:35 AM 62.6 °F - 57.2 °F 82% 29.83 in 10.0 mi SW 12.7 mph 18.4 mph N/A   Mostly Cloudy
9:55 AM 62.6 °F - 55.4 °F 77% 29.84 in 10.0 mi WSW 9.2 mph - N/A   Mostly Cloudy
10:15 AM 62.6 °F - 53.6 °F 72% 29.84 in 10.0 mi West 8.1 mph - N/A   Mostly Cloudy
10:35 AM 62.6 °F - 51.8 °F 68% 29.85 in 10.0 mi WSW 6.9 mph - N/A   Scattered Clouds
10:55 AM 62.6 °F - 51.8 °F 68% 29.85 in 10.0 mi Calm Calm - N/A   Clear
11:15 AM 62.6 °F - 51.8 °F 68% 29.85 in 10.0 mi NNW 3.5 mph - N/A   Scattered Clouds
11:35 AM 64.4 °F - 51.8 °F 64% 29.85 in 10.0 mi NE 4.6 mph - N/A   Clear
11:55 AM 64.4 °F - 51.8 °F 64% 29.85 in 10.0 mi NNE 5.8 mph - N/A   Scattered Clouds
12:15 PM 68.0 °F - 51.8 °F 56% 29.85 in 10.0 mi North 8.1 mph - N/A   Scattered Clouds
12:35 PM 68.0 °F - 51.8 °F 56% 29.85 in 10.0 mi NNE 10.4 mph - N/A   Scattered Clouds
12:55 PM 68.0 °F - 53.6 °F 60% 29.86 in 10.0 mi NNE 12.7 mph 17.3 mph N/A   Mostly Cloudy
1:15 PM 68.0 °F - 51.8 °F 56% 29.85 in 10.0 mi NNE 12.7 mph - N/A   Mostly Cloudy
1:35 PM 60.8 °F - 53.6 °F 77% 29.87 in 10.0 mi North 21.9 mph 31.1 mph N/A   Overcast
1:55 PM 62.6 °F - 53.6 °F 72% 29.88 in 10.0 mi North 23.0 mph 32.2 mph N/A   Mostly Cloudy
2:15 PM 59.0 °F - 51.8 °F 77% 29.90 in 10.0 mi North 24.2 mph 33.4 mph N/A   Overcast
2:35 PM 59.0 °F - 51.8 °F 77% 29.90 in 10.0 mi NNE 21.9 mph 31.1 mph N/A   Mostly Cloudy
2:55 PM 60.8 °F - 51.8 °F 72% 29.91 in 10.0 mi NNE 25.3 mph 28.8 mph N/A   Scattered Clouds
3:15 PM 59.0 °F - 50.0 °F 72% 29.93 in 10.0 mi North 17.3 mph 28.8 mph N/A   Mostly Cloudy
3:35 PM 59.0 °F - 46.4 °F 63% 29.94 in 10.0 mi North 18.4 mph 29.9 mph N/A   Overcast
3:55 PM 55.4 °F - 48.2 °F 77% 29.96 in 10.0 mi North 20.7 mph 33.4 mph N/A   Overcast
4:15 PM 53.6 °F - 50.0 °F 88% 29.97 in 10.0 mi North 16.1 mph 28.8 mph N/A   Overcast
4:35 PM 55.4 °F - 50.0 °F 82% 29.99 in 10.0 mi North 17.3 mph 24.2 mph N/A   Overcast
4:55 PM 53.6 °F - 48.2 °F 82% 30.00 in 10.0 mi North 20.7 mph 26.5 mph N/A   Overcast
5:35 PM 53.6 °F - 46.4 °F 77% 30.01 in 10.0 mi North 16.1 mph 20.7 mph N/A   Overcast
5:55 PM 53.6 °F - 46.4 °F 77% 30.02 in 10.0 mi North 12.7 mph 24.2 mph N/A   Mostly Cloudy
6:15 PM 51.8 °F - 46.4 °F 82% 30.04 in 10.0 mi North 12.7 mph - N/A   Mostly Cloudy
6:35 PM 51.8 °F - 44.6 °F 76% 30.05 in 10.0 mi North 12.7 mph 21.9 mph N/A   Scattered Clouds
6:55 PM 51.8 °F - 42.8 °F 71% 30.06 in 10.0 mi North 10.4 mph 18.4 mph N/A   Scattered Clouds
7:15 PM 50.0 °F - 42.8 °F 76% 30.07 in 10.0 mi North 11.5 mph 17.3 mph N/A   Scattered Clouds
7:35 PM 50.0 °F - 41.0 °F 71% 30.07 in 10.0 mi North 13.8 mph - N/A   Clear
7:55 PM 50.0 °F - 41.0 °F 71% 30.08 in 10.0 mi North 10.4 mph 17.3 mph N/A   Clear
8:15 PM 50.0 °F - 41.0 °F 71% 30.09 in 10.0 mi North 10.4 mph 16.1 mph N/A   Clear
8:35 PM 50.0 °F - 41.0 °F 71% 30.10 in 10.0 mi North 11.5 mph - N/A   Clear
8:55 PM 48.2 °F - 39.2 °F 71% 30.11 in 10.0 mi North 10.4 mph 17.3 mph N/A   Clear
9:15 PM 48.2 °F - 37.4 °F 66% 30.12 in 10.0 mi North 10.4 mph - N/A   Clear
9:35 PM 48.2 °F - 37.4 °F 66% 30.13 in 10.0 mi North 9.2 mph 16.1 mph N/A   Clear
9:55 PM 48.2 °F - 37.4 °F 66% 30.15 in 10.0 mi North 10.4 mph - N/A   Clear
10:15 PM 46.4 °F 40.4 °F 37.4 °F 71% 30.15 in 10.0 mi North 13.8 mph 20.7 mph N/A   Clear
10:35 PM 46.4 °F 40.4 °F 37.4 °F 71% 30.15 in 10.0 mi North 13.8 mph - N/A   Clear
10:55 PM 46.4 °F 40.7 °F 37.4 °F 71% 30.16 in 10.0 mi North 12.7 mph - N/A   Clear
11:15 PM 46.4 °F 40.1 °F 35.6 °F 66% 30.16 in 10.0 mi North 15.0 mph 18.4 mph N/A   Clear
11:35 PM 46.4 °F 40.1 °F 35.6 °F 66% 30.17 in 10.0 mi North 15.0 mph 19.6 mph N/A   Clear
11:55 PM 46.4 °F 40.7 °F 35.6 °F 66% 30.17 in 10.0 mi North 12.7 mph - N/A   Clear